This is the latest recevied weather packets stored in our database for station/object K4AVM-13. If no packets are shown the sender has not sent any weather packets the latest 10 day(s).
| Time | Temp. | Humidity | Pressure | Rain* | Wind** | Luminosity | Snow |
|---|---|---|---|---|---|---|---|
| 1778070295 | 18.89° C | 76% | 1013.3 hPa | 0 mm | - | 98 W/m² | - |
| 1778069993 | 18.89° C | 76% | 1013.4 hPa | 0 mm | - | 127 W/m² | - |
| 1778069690 | 18.33° C | 76% | 1013.4 hPa | 0 mm | - | 210 W/m² | - |
| 1778069386 | 18.33° C | 78% | 1013.4 hPa | 0 mm | - | 129 W/m² | - |
| 1778069084 | 17.78° C | 78% | 1013.6 hPa | 0 mm | - | 113 W/m² | - |
| 1778068782 | 17.78° C | 78% | 1013.5 hPa | 0 mm | - | 92 W/m² | - |
| 1778068479 | 17.78° C | 78% | 1013.6 hPa | 0 mm | - | 92 W/m² | - |
| 1778068178 | 17.78° C | 78% | 1013.4 hPa | 0 mm | - | 110 W/m² | - |
| 1778067875 | 17.78° C | 79% | 1013.5 hPa | 0 mm | - | 101 W/m² | - |
| 1778067573 | 17.78° C | 79% | 1013.2 hPa | 0 mm | - | 82 W/m² | - |
| 1778067271 | 17.22° C | 79% | 1013.3 hPa | 0 mm | - | 75 W/m² | - |
| 1778066967 | 17.22° C | 79% | 1013.4 hPa | 0 mm | - | 66 W/m² | - |
| 1778066665 | 17.22° C | 80% | 1013.5 hPa | 0 mm | - | 54 W/m² | - |
| 1778066362 | 17.22° C | 79% | 1013.4 hPa | 0 mm | - | 40 W/m² | - |
| 1778066060 | 17.22° C | 79% | 1013.4 hPa | 0 mm | - | 40 W/m² | - |
| 1778065757 | 17.22° C | 79% | 1013.3 hPa | 0 mm | - | 31 W/m² | - |
| 1778065455 | 17.22° C | 79% | 1013.4 hPa | 0 mm | - | 25 W/m² | - |
| 1778065151 | 17.22° C | 79% | 1013.7 hPa | 0 mm | - | 22 W/m² | - |
| 1778064847 | 17.22° C | 79% | 1013.6 hPa | 0 mm | - | 23 W/m² | - |
| 1778064544 | 17.22° C | 79% | 1013.6 hPa | 0 mm | - | 17 W/m² | - |
| 1778064243 | 17.22° C | 79% | 1013.6 hPa | 0 mm | - | 13 W/m² | - |
| 1778063940 | 17.22° C | 79% | 1013.7 hPa | 0 mm | - | 10 W/m² | - |
| 1778063637 | 17.22° C | 79% | 1013.8 hPa | 0 mm | - | 8 W/m² | - |
| 1778063334 | 17.22° C | 78% | 1013.5 hPa | 0 mm | - | 7 W/m² | - |
| 1778063032 | 17.22° C | 78% | 1013.4 hPa | 0 mm | - | 5 W/m² | - |
* Rain latest hour (hover to see other rain measurements)
** Current wind speed in m/s (hover to see current wind gust speed)